Weather History for LTBA - March, 2014

Change the Weather History Date:

Monday, March 31, 2014

  Actual Average Record
Temperature  
Mean Temperature 44 °F -  
Max Temperature 54 °F 59 °F - ()
Min Temperature 35 °F 45 °F - ()
Degree Days  
Heating Degree Days 20    
Moisture  
Dew Point 35 °F    
Average Humidity 63    
Maximum Humidity 81    
Minimum Humidity 41    
Precipitation  
Precipitation 0.00 in - - ()
Sea Level Pressure  
Sea Level Pressure 29.97 in    
Wind  
Wind Speed 4 mph ()    
Max Wind Speed 7 mph    
Max Gust Speed -    
Visibility 6.8 miles    
Events      
T = Trace of Precipitation, MM = Missing Value Source: Averaged Metar Reports

Daily Weather History Graph

Daily Weather History Graph

Search for Another Location

Airport or City:

Trip Planner

Search our weather history database for the weather conditions in past years. The results will help you decide how hot, cold, wet, or windy it might be!

Date:

Astronomy

Mar. 31, 2014 Rise Set
Actual Time 6:50 AM EEST 7:28 PM EEST
Civil Twilight 6:22 AM EEST 7:56 PM EEST
Nautical Twilight 5:49 AM EEST 8:28 PM EEST
Astronomical Twilight 5:16 AM EEST 9:02 PM EEST
Moon 7:00 AM EEST (3/31) 8:26 PM EEST (3/31)
Length of Visible Light 13h 33m
Length of Day
12h 38m
New Moon, 0% of the Moon is Illuminated
Mar 31
New Moon
Apr 7
First Quarter
Apr 15
Full
Apr 22
Last Quarter
Apr 29
New

Hourly Weather History & Observations

Time (EEST) Temp. Windchill Dew Point Humidity Pressure Visibility Wind Dir Wind Speed Gust Speed Precip Events Conditions
12:20 AM 44.6 °F 41.4 °F 30.2 °F 57% 30.09 in - East 5.8 mph - N/A   Clear
12:50 AM 44.6 °F 42.2 °F 32.0 °F 61% 30.09 in - ESE 4.6 mph - N/A   Clear
1:20 AM 42.8 °F 39.3 °F 30.2 °F 61% 30.06 in - East 5.8 mph - N/A   Clear
1:50 AM 42.8 °F 41.1 °F 30.2 °F 61% 30.06 in - ENE 3.5 mph - N/A   Clear
2:00 AM 43 °F - 30 °F 49% 30.08 in 6 mi ENE 3.5 mph - -  
2:20 AM 42.8 °F 41.1 °F 30.2 °F 61% 30.06 in - ENE 3.5 mph - N/A   Clear
2:50 AM 39.2 °F - 30.2 °F 70% 30.06 in - Calm Calm - N/A   Clear
4:20 AM 42.8 °F 41.1 °F 30.2 °F 61% 30.04 in - NE 3.5 mph - N/A   Clear
4:50 AM 39.2 °F - 30.2 °F 70% 30.04 in - Calm Calm - N/A   Clear
5:20 AM 37.4 °F - 30.2 °F 75% 30.04 in - Calm Calm - N/A   Clear
5:50 AM 37.4 °F - 30.2 °F 75% 30.04 in - Calm Calm - N/A   Clear
6:00 AM 37 °F - 29 °F 63% 30.06 in 6 mi Calm Calm - -  
6:20 AM 35.6 °F 31.7 °F 30.2 °F 81% 30.04 in - North 4.6 mph - N/A   Clear
6:50 AM 37.4 °F 33.8 °F 32.0 °F 81% 30.04 in - NNW 4.6 mph - N/A   Clear
7:20 AM 39.2 °F 37.0 °F 32.0 °F 75% 30.04 in - NNW 3.5 mph - N/A   Clear
7:50 AM 41.0 °F 38.0 °F 33.8 °F 76% 30.04 in - North 4.6 mph - N/A   Clear
8:20 AM 46.4 °F - 33.8 °F 62% 30.04 in - Variable 2.3 mph - N/A   Clear
8:50 AM 46.4 °F - 33.8 °F 62% 30.01 in - Variable 2.3 mph - N/A   Clear
9:00 AM 46 °F - 34 °F 52% 30.04 in 6 mi ESE 2.3 mph - -  
9:20 AM 48.2 °F - 35.6 °F 62% 30.01 in - ESE 4.6 mph - N/A   Clear
9:50 AM 48.2 °F - 33.8 °F 58% 30.01 in - ESE 3.5 mph - N/A   Clear
10:20 AM 50.0 °F - 35.6 °F 58% 30.01 in - Variable 2.3 mph - N/A   Clear
10:50 AM 48.2 °F - 33.8 °F 58% 30.01 in - ESE 3.5 mph - N/A   Clear
11:20 AM 50.0 °F - 37.4 °F 62% 30.01 in - SSW 4.6 mph - N/A   Clear
11:50 AM 50.0 °F - 39.2 °F 66% 30.01 in - SSW 6.9 mph - N/A   Clear
12:00 PM 50 °F - 37 °F 50% 30.02 in 6 mi SSW 6.9 mph - -  
12:20 PM 50.0 °F - 37.4 °F 62% 30.01 in - SW 5.8 mph - N/A   Clear
12:50 PM 51.8 °F - 35.6 °F 54% 29.98 in - SW 4.6 mph - N/A   Clear
1:20 PM 51.8 °F - 37.4 °F 58% 29.98 in - SSW 5.8 mph - N/A   Clear
1:50 PM 51.8 °F - 39.2 °F 62% 29.98 in - SW 5.8 mph - N/A   Clear
2:20 PM 51.8 °F - 35.6 °F 54% 29.95 in - SW 5.8 mph - N/A   Clear
2:50 PM 53.6 °F - 37.4 °F 54% 29.95 in - SSW 5.8 mph - N/A   Clear
3:00 PM 53 °F - 36 °F 41% 29.96 in 6 mi SSW 5.8 mph - -  
3:20 PM 51.8 °F - 37.4 °F 58% 29.95 in - SSW 3.5 mph - N/A   Clear
3:50 PM 53.6 °F - 33.8 °F 47% 29.92 in - SW 6.9 mph - N/A   Clear
4:20 PM 53.6 °F - 35.6 °F 51% 29.92 in - SW 5.8 mph - N/A   Clear
4:50 PM 53.6 °F - 39.2 °F 58% 29.89 in - SSW 6.9 mph - N/A   Clear
5:20 PM 51.8 °F - 35.6 °F 54% 29.89 in - SW 5.8 mph - N/A   Clear
5:50 PM 53.6 °F - 35.6 °F 51% 29.89 in - SW 4.6 mph - N/A   Clear
6:00 PM 53 °F - 37 °F 42% 29.90 in 12 mi SW 4.6 mph - -  
6:20 PM 51.8 °F - 39.2 °F 62% 29.89 in - SW 5.8 mph - N/A   Clear
6:50 PM 51.8 °F - 37.4 °F 58% 29.89 in - SW 5.8 mph - N/A   Clear
7:20 PM 50.0 °F - 41.0 °F 71% 29.86 in - WSW 5.8 mph - N/A   Clear
7:50 PM 48.2 °F - 39.2 °F 71% 29.86 in - WSW 3.5 mph - N/A   Clear
8:20 PM 50.0 °F - 39.2 °F 66% 29.89 in - WSW 3.5 mph - N/A   Clear
8:50 PM 48.2 °F - 39.2 °F 71% 29.89 in - West 3.5 mph - N/A   Clear
9:00 PM 49 °F - 40 °F 63% 29.89 in 6 mi West 3.5 mph - -  
9:20 PM 48.2 °F - 39.2 °F 71% 29.89 in - WSW 3.5 mph - N/A   Clear
9:50 PM 48.2 °F - 39.2 °F 71% 29.89 in - Variable 1.2 mph - N/A   Clear
10:20 PM 48.2 °F - 39.2 °F 71% 29.89 in - WSW 1.2 mph - N/A   Clear
10:50 PM 46.4 °F - 39.2 °F 76% 29.89 in - SSW 2.3 mph - N/A   Clear
11:20 PM 48.2 °F - 39.2 °F 71% 29.89 in - SW 2.3 mph - N/A   Clear
11:50 PM 48.2 °F - 39.2 °F 71% 29.89 in - Variable 2.3 mph - N/A   Clear
12:00 AM 48 °F - 39 °F 61% 29.89 in 6 mi SW 2.3 mph - -  
12:20 AM 46.4 °F - 39.2 °F 76% 29.89 in - Calm Calm - N/A   Clear
12:50 AM 46.4 °F - 41.0 °F 81% 29.89 in - Variable 1.2 mph - N/A   Clear